Terminal Aerodrome Forecast
Issued by NWS Columbia, SC

Home | Current Version | Previous Version | Text Only | Print | Product List | Glossary On
Versions: 1 2 3 4 5 6 7 8 9 10 11 12 13 14 15 16 17 18 19 20 21 22 23 24 25 26 27 28 29 30 31 32 33 34 35 36 37 38 39 40 41 42 43 44 45 46 47
000
FTUS42 KCAE 312048 AAB
TAFAGS
TAF AMD
KAGS 312048Z 3121/0118 VRB04KT P6SM BKN030
     FM312200 VRB03KT P6SM SCT040
     FM010000 VRB03KT P6SM SCT050 BKN150
     FM010600 VRB03KT 3SM BR SCT250
      TEMPO 0110/0114 1 1/2SM BR
     FM011500 VRB04KT P6SM SCT250=

USA.gov is the U.S. government's official web portal to all federal, state and local government web resources and services.